Regional Weather Roundup
Issued by NWS Sioux Falls, SD

Home | Current Version | Previous Version | Graphics & Text | Print | Product List | Glossary Off
Versions: 1 2 3 4 5 6 7 8 9 10 11 12 13 14 15 16 17 18 19 20 21 22 23 24 25 26 27 28 29 30 31 32 33 34 35 36 37 38 39 40 41 42 43 44 45 46 47 48 49 50

813
ASUS43 KFSD 051410
RWRFSD

WEATHER ROUNDUP FOR SE SOUTH DAKOTA/SW MINNESOTA/NW IOWA
NATIONAL WEATHER SERVICE SIOUX FALLS SD
900 AM CDT THU MAY 05 2016

NOTE: "FAIR" INDICATES FEW OR NO CLOUDS BELOW 12,000 FEET WITH NO
SIGNIFICANT WEATHER AND OR OBSTRUCTIONS TO VISIBILITY.


SDZ038>040-050-052>070-051500-
SOUTHEAST SOUTH DAKOTA

CITY           SKY/WX    TMP DP  RH WIND       PRES   REMARKS
BROOKINGS      SUNNY     55  40  56 S6        30.03S
CHAMBERLAIN    SUNNY     60  47  61 SW7       30.02F
HURON          SUNNY     58  45  62 S6        30.00F
MADISON        FAIR      57  41  54 SW8       30.04S
MITCHELL       SUNNY     59  45  59 SW5       30.04S
SIOUX FALLS    MOSUNNY   57  46  66 CALM      30.05F
WINNER         FAIR      63  42  46 SW14      30.02F
YANKTON        SUNNY     55  43  62 SW6       30.06F
$$

MNZ071-072-080-081-089-090-097-098-051500-
SOUTHWEST MINNESOTA

CITY           SKY/WX    TMP DP  RH WIND       PRES   REMARKS
FAIRMONT       SUNNY     54  34  47 S9        30.08R
JACKSON        SUNNY     55  34  44 S5        30.09R
LUVERNE        SUNNY     52  39  62 CALM      30.07S
MARSHALL       SUNNY     64  35  34 S5        30.04R
MONTEVIDEO     SUNNY     61  39  44 SW5       30.05R
PIPESTONE      SUNNY     57  37  47 SW6       30.05S
REDWOOD FALLS  SUNNY     54  35  48 S6        30.06R
TRACY          SUNNY     62  34  35 SW9       30.05R
WINDOM         SUNNY     57  37  47 CALM      30.07R
WORTHINGTON      N/A     58  37  45 SW8       30.07R
$$

IAZ001>003-012>014-020>022-031-032-NEZ013-014-SDZ071-051500-
NORTHWEST IOWA

CITY           SKY/WX    TMP DP  RH WIND       PRES   REMARKS
CHEROKEE       SUNNY     49  46  87 CALM      30.08S
DENISON        SUNNY     48  43  81 CALM      30.07R
ESTHERVILLE    SUNNY     52  38  58 S7        30.08R
LE MARS        SUNNY     50  43  76 CALM      30.09S
ORANGE CITY    SUNNY     55  41  58 CALM      30.07S
SHELDON        SUNNY     55  37  50 SW5       30.06R
SIOUX CITY     SUNNY     56  45  66 CALM      30.08S
SPENCER        SUNNY     53  40  61 S3        30.08R
STORM LAKE     SUNNY     57  32  38 S6        30.09R
$$

ABBREVIATIONS USED IN REMARKS
   TC - TEMPERATURE IN CELSIUS
  WCI - WIND CHILL INDEX
   HX - HEAT INDEX
  VSB - VISIBILITY





USA.gov is the U.S. government's official web portal to all federal, state and local government web resources and services.